Volver al catálogo

KUIPER-00541

ActivoComunicacionesVLEO
NORAD 69610·PAYLOAD·🇺🇸 United States

Lanzado Jun 17, 2026 desde Guiana Space Centre

Loading…

Próximos Pases (próximas 24 horas)

TLE

ActualizadoSource: CelesTrak SupGP

Época: Sep 14, 2026, 21:20 UTC

1 69610C 26140U   26257.88898148 -.01130600  00000+0 -43285-1 0  2573
2 69610  51.8867 324.8845 0006937 165.5804 223.6630 15.27095526    12

Sigue KUIPER-00541 en tiempo real con AllMySat

Download on the App Store